Location: Unspecified
(52.4292°N, 19.3359°E)
Time: 22:40:05
(UTC+02:00)

A-11 Canister half - Pass Details

Date: 24 May 2024
Orbit: 1524 x 1683 km, 47.3° (Epoch: 19 June)

Event Time Altitude Azimuth Distance (km) Brightness Sun altitude
Rises 02:32:39 0° 281° (W) 4,758 11.4 -12.7°
Reaches altitude 10° 02:35:48 10° 276° (W) 3,793 10.8 -12.5°
Maximum altitude 02:44:55 49° 206° (SSW) 2,010 9.2 -11.8°
Drops below altitude 10° 02:54:18 10° 135° (SE) 3,901 11.0 -11.1°
Sets 02:57:37 0° 131° (SE) 4,903 11.6 -10.8°
